• In Uzbekistan
  • List of Countries
  • For 7 days
  • Water Temperature
  • Satellite Maps
  • Weather Map
  • Weather Widgets
  • user-avatar
    Login

    Hourly Weather Andora

    Today, 23 January, Monday

    Time Temperature Precipitation Wind Pressure Humidity
    00:00 -3°C° 0 mm 1 mps 622 mmHg 90%
    01:00 -5°C° 0.1 mm 2 mps 622 mmHg 90%
    02:00 -5°C° 0.1 mm 2 mps 621 mmHg 90%
    03:00 -5°C° 0.1 mm 2 mps 621 mmHg 90%
    04:00 -5°C° 0.2 mm 2 mps 621 mmHg 91%
    05:00 -5°C° 0.2 mm 2 mps 621 mmHg 91%
    06:00 -5°C° 0.2 mm 2 mps 621 mmHg 91%
    07:00 -4°C° 0.3 mm 2 mps 622 mmHg 90%
    08:00 -4°C° 0.3 mm 2 mps 622 mmHg 89%
    09:00 -3°C° 0.3 mm 2 mps 623 mmHg 87%
    10:00 -3°C° 0.5 mm 2 mps 623 mmHg 87%
    11:00 -2°C° 0.5 mm 2 mps 623 mmHg 86%
    12:00 -2°C° 0.5 mm 2 mps 623 mmHg 85%
    13:00 -2°C° 0.2 mm 2 mps 623 mmHg 85%
    14:00 -2°C° 0.2 mm 2 mps 623 mmHg 85%
    15:00 -1°C° 0.2 mm 3 mps 623 mmHg 85%
    16:00 -3°C° 0.1 mm 2 mps 623 mmHg 87%
    17:00 -4°C° 0.1 mm 2 mps 622 mmHg 90%
    18:00 -5°C° 0.1 mm 2 mps 622 mmHg 93%
    19:00 -5°C° 0.1 mm 2 mps 622 mmHg 92%
    20:00 -5°C° 0.1 mm 2 mps 622 mmHg 91%
    21:00 -5°C° 0.1 mm 2 mps 622 mmHg 90%
    22:00 -6°C° 0 mm 2 mps 622 mmHg 89%
    23:00 -7°C° 0 mm 3 mps 622 mmHg 88%

    Tomorrow, 24 January, Tuesday

    Time Temperature Precipitation Wind Pressure Humidity
    00:00 -7°C° 0 mm 3 mps 622 mmHg 87%
    01:00 -7°C° 0 mm 3 mps 622 mmHg 86%
    02:00 -8°C° 0 mm 3 mps 622 mmHg 85%
    03:00 -8°C° 0 mm 3 mps 621 mmHg 83%
    04:00 -9°C° 0 mm 3 mps 621 mmHg 81%
    05:00 -9°C° 0 mm 3 mps 621 mmHg 78%
    06:00 -9°C° 0 mm 3 mps 621 mmHg 76%
    07:00 -8°C° 0 mm 3 mps 622 mmHg 73%
    08:00 -7°C° 0 mm 3 mps 623 mmHg 71%
    09:00 -6°C° 0 mm 3 mps 623 mmHg 68%
    10:00 -4°C° 0 mm 3 mps 624 mmHg 66%
    11:00 -1°C° 0 mm 3 mps 625 mmHg 64%
    12:00 0°C° 0 mm 3 mps 625 mmHg 62%
    13:00 0°C° 0 mm 3 mps 625 mmHg 63%
    14:00 0°C° 0 mm 3 mps 625 mmHg 65%
    15:00 0°C° 0 mm 3 mps 624 mmHg 66%
    16:00 -4°C° 0 mm 3 mps 623 mmHg 72%
    17:00 -6°C° 0 mm 2 mps 623 mmHg 78%
    18:00 -8°C° 0 mm 2 mps 622 mmHg 84%
    19:00 -8°C° 0 mm 2 mps 622 mmHg 81%
    20:00 -8°C° 0 mm 2 mps 622 mmHg 78%
    21:00 -10°C° 0 mm 3 mps 622 mmHg 75%
    22:00 -9°C° 0 mm 2 mps 622 mmHg 73%
    23:00 -9°C° 0 mm 2 mps 622 mmHg 71%

    Day after tomorrow, 25 January, Wednesday

    Time Temperature Precipitation Wind Pressure Humidity
    00:00 -9°C° 0 mm 2 mps 621 mmHg 70%
    01:00 -10°C° 0 mm 2 mps 621 mmHg 70%
    02:00 -10°C° 0 mm 2 mps 621 mmHg 69%
    03:00 -10°C° 0 mm 2 mps 621 mmHg 69%
    04:00 -12°C° 0 mm 2 mps 620 mmHg 70%
    05:00 -12°C° 0 mm 2 mps 620 mmHg 71%
    06:00 -12°C° 0 mm 2 mps 620 mmHg 72%
    07:00 -10°C° 0 mm 2 mps 621 mmHg 72%
    08:00 -8°C° 0 mm 2 mps 622 mmHg 73%
    09:00 -7°C° 0 mm 2 mps 622 mmHg 73%
    10:00 -4°C° 0.1 mm 1 mps 623 mmHg 72%
    11:00 -3°C° 0.1 mm 1 mps 623 mmHg 70%
    12:00 -2°C° 0.1 mm 1 mps 623 mmHg 69%
    13:00 -2°C° 0.3 mm 1 mps 623 mmHg 72%
    14:00 -2°C° 0.3 mm 1 mps 623 mmHg 74%
    15:00 -2°C° 0.3 mm 1 mps 622 mmHg 76%
    16:00 -4°C° 0.3 mm 1 mps 622 mmHg 82%
    17:00 -6°C° 0.3 mm 1 mps 622 mmHg 88%
    18:00 -8°C° 0.3 mm 1 mps 621 mmHg 94%
    19:00 -9°C° 0 mm 1 mps 621 mmHg 93%
    20:00 -9°C° 0 mm 1 mps 621 mmHg 92%
    21:00 -10°C° 0 mm 1 mps 621 mmHg 92%
    22:00 -11°C° 0 mm 1 mps 620 mmHg 90%
    23:00 -11°C° 0 mm 1 mps 620 mmHg 88%

    26 January, Thursday

    Time Temperature Precipitation Wind Pressure Humidity
    00:00 -11°C° 0 mm 1 mps 620 mmHg 87%
    01:00 -11°C° 0.2 mm 1 mps 620 mmHg 86%
    02:00 -10°C° 0.2 mm 1 mps 620 mmHg 84%
    03:00 -9°C° 0.2 mm 1 mps 620 mmHg 83%
    04:00 -9°C° 0.1 mm 1 mps 620 mmHg 83%
    05:00 -9°C° 0.1 mm 1 mps 620 mmHg 83%
    06:00 -9°C° 0.1 mm 1 mps 620 mmHg 84%
    07:00 -7°C° 0 mm 1 mps 621 mmHg 81%
    08:00 -4°C° 0 mm 1 mps 622 mmHg 78%
    09:00 -2°C° 0 mm 1 mps 623 mmHg 76%
    10:00 -2°C° 0 mm 2 mps 623 mmHg 75%
    11:00 -1°C° 0 mm 2 mps 623 mmHg 74%
    12:00 +1°C° 0 mm 2 mps 623 mmHg 73%
    13:00 +1°C° 0 mm 2 mps 623 mmHg 75%
    14:00 +1°C° 0 mm 2 mps 623 mmHg 76%
    15:00 +1°C° 0 mm 2 mps 622 mmHg 77%
    16:00 -2°C° 0 mm 2 mps 621 mmHg 82%
    17:00 -4°C° 0 mm 2 mps 621 mmHg 87%
    18:00 -7°C° 0 mm 2 mps 620 mmHg 91%
    19:00 -6°C° 0 mm 2 mps 620 mmHg 90%
    20:00 -6°C° 0 mm 2 mps 620 mmHg 90%
    21:00 -5°C° 0 mm 2 mps 621 mmHg 89%
    22:00 -5°C° 0 mm 2 mps 620 mmHg 88%
    23:00 -5°C° 0 mm 2 mps 620 mmHg 87%

    27 January, Friday

    Time Temperature Precipitation Wind Pressure Humidity
    00:00 -5°C° 0 mm 2 mps 620 mmHg 86%
    01:00 -6°C° 0 mm 2 mps 619 mmHg 85%
    02:00 -6°C° 0 mm 2 mps 619 mmHg 84%
    03:00 -6°C° 0 mm 2 mps 619 mmHg 83%
    04:00 -7°C° 0 mm 2 mps 618 mmHg 83%
    05:00 -7°C° 0 mm 2 mps 618 mmHg 83%
    06:00 -7°C° 0 mm 2 mps 618 mmHg 82%
    07:00 -6°C° 0 mm 2 mps 619 mmHg 81%
    08:00 -5°C° 0 mm 2 mps 619 mmHg 79%
    09:00 -4°C° 0 mm 2 mps 620 mmHg 77%
    10:00 -3°C° 0.1 mm 2 mps 620 mmHg 76%
    11:00 -1°C° 0.1 mm 2 mps 621 mmHg 76%
    12:00 +1°C° 0.1 mm 2 mps 621 mmHg 75%
    13:00 +1°C° 0.1 mm 2 mps 621 mmHg 76%
    14:00 +1°C° 0.1 mm 2 mps 621 mmHg 78%
    15:00 +1°C° 0.1 mm 2 mps 621 mmHg 79%
    16:00 -2°C° 0.1 mm 2 mps 621 mmHg 83%
    17:00 -1°C° 0.1 mm 1 mps 621 mmHg 88%
    18:00 -2°C° 0.1 mm 1 mps 621 mmHg 92%
    19:00 -3°C° 0.1 mm 1 mps 621 mmHg 92%
    20:00 -3°C° 0.1 mm 1 mps 622 mmHg 92%
    21:00 -4°C° 0.1 mm 1 mps 622 mmHg 93%
    22:00 -4°C° 0.1 mm 1 mps 622 mmHg 92%
    23:00 -6°C° 0.1 mm 1 mps 622 mmHg 92%

    28 January, Saturday

    Time Temperature Precipitation Wind Pressure Humidity
    00:00 -6°C° 0.1 mm 1 mps 622 mmHg 92%
    01:00 -6°C° 0 mm 1 mps 622 mmHg 91%
    02:00 -6°C° 0 mm 1 mps 623 mmHg 91%
    03:00 -6°C° 0 mm 1 mps 623 mmHg 91%
    04:00 -6°C° 0.1 mm 1 mps 623 mmHg 91%
    05:00 -4°C° 0.1 mm 1 mps 624 mmHg 91%
    06:00 -4°C° 0.1 mm 1 mps 624 mmHg 91%
    07:00 -3°C° 0.3 mm 1 mps 625 mmHg 88%
    08:00 -1°C° 0.3 mm 1 mps 627 mmHg 85%
    09:00 0°C° 0.3 mm 1 mps 628 mmHg 82%
    10:00 +1°C° 0.1 mm 1 mps 628 mmHg 80%
    11:00 +2°C° 0.1 mm 1 mps 629 mmHg 78%
    12:00 +3°C° 0.1 mm 1 mps 629 mmHg 76%
    13:00 +3°C° 0 mm 1 mps 629 mmHg 76%
    14:00 +3°C° 0 mm 1 mps 629 mmHg 77%
    15:00 +3°C° 0 mm 1 mps 629 mmHg 77%
    16:00 +1°C° 0 mm 1 mps 629 mmHg 83%
    17:00 -1°C° 0 mm 1 mps 628 mmHg 88%
    18:00 -2°C° 0 mm 1 mps 628 mmHg 94%
    19:00 -3°C° 0 mm 1 mps 628 mmHg 94%
    20:00 -3°C° 0 mm 1 mps 628 mmHg 94%
    21:00 -4°C° 0 mm 1 mps 628 mmHg 93%
    22:00 -6°C° 0 mm 1 mps 628 mmHg 93%
    23:00 -6°C° 0 mm 1 mps 627 mmHg 93%
    Show more